Location: High Meadows Obseravatory
(40.7417°N, 111.5713°W)
Time: 02:44:40
(UTC-07:00)

ISS - Visible Passes

Search period start: 22 January 2022 00:00
Search period end: 01 February 2022 00:00
Orbit: 413 x 422 km, 51.6° (Epoch: 22 January)

Date Brightness Start Highest point End Pass type
(mag) Time Alt. Az. Time Alt. Az. Time Alt. Az.
22 Jan -3.0 17:57:35 10° WSW 18:00:48 47° NNW 18:04:02 10° NE visible
22 Jan -1.2 19:36:10 10° NW 19:37:35 15° NNW 19:37:35 15° NNW visible
23 Jan -1.6 18:47:36 10° WNW 18:50:00 18° NNW 18:51:36 14° NNE visible
24 Jan -2.0 17:59:05 10° WNW 18:01:49 23° NNW 18:04:34 10° NNE visible
24 Jan -1.0 19:37:56 10° NNW 19:38:31 12° NNW 19:38:31 12° NNW visible
25 Jan -1.4 18:49:30 10° NW 18:51:15 13° N 18:52:30 12° NNE visible
26 Jan -0.9 19:39:03 10° NNW 19:39:25 11° NNW 19:39:25 11° NNW visible
27 Jan -1.4 18:51:00 10° NNW 18:52:36 13° N 18:53:25 12° NNE visible
28 Jan -1.2 19:39:39 10° NNW 19:40:23 14° NNW 19:40:23 14° NNW visible
29 Jan -1.8 18:51:48 10° NNW 18:53:54 15° NNE 18:54:27 15° NNE visible
30 Jan -1.7 19:40:09 10° NW 19:41:32 20° NNW 19:41:32 20° NNW visible
31 Jan -2.4 18:52:19 10° NNW 18:55:05 24° NNE 18:55:46 22° NE visible
